Location: Kermapucano
(48.0667°N, 3.3000°W)
Time: 20:24:05
(UTC+00:00)

Envisat - Pass Details

Date: 29 November 2020
Orbit: 764 x 766 km, 98.1° (Epoch: 27 January)

Event Time Altitude Azimuth Distance (km) Brightness Sun altitude
Rises 06:31:16 0° 11° (NNE) 3,247 6.2 -11.1°
Reaches altitude 10° 06:33:35 10° 10° (N) 2,316 5.4 -10.8°
Maximum altitude 06:38:40 71° 288° (WNW) 811 2.9 -10.0°
Drops below altitude 10° 06:43:43 10° 204° (SSW) 2,298 5.5 -9.2°
Sets 06:46:00 0° 202° (SSW) 3,220 6.2 -8.8°
